一网星座-0681星 (ONEWEB-0681)

导读

ONEWEB-0681是英国一网公司(OneWeb)旗下低轨宽带卫星,于2023年5月20日发射,属于OneWeb第二代卫星星座组成部分。该卫星运行在1200公里近地极地轨道,质量约175-200千克,采用Ku波段通信,可为全球偏远及基础设施薄弱地区提供高速互联网接入,第二代卫星还集成定位导航授时功能,进一步拓展服务能力。

Basic Information
目录编号:
56717
目录名称:
ONEWEB-0681
国际标识:
2023-068H
轨道中心:
EARTH
卫星名称:
一网星座-0681星
卫星全名:
一网星座-0681星 (ONEWEB-0681)
卫星状态:
在轨 (已飞行1124 天)
发射日期:
2023-05-20 UTC
国别 :
英国 (GB)
星等 :
--
Orbit Information
数据来源 国际轨道数据 AOE轨道数据
星历时间 2026-06-17T06:12:13+0800
14小时前
查看轨道信息
2026-06-17T01:00:00+0800
20小时前
查看轨道信息
半长轴 7555.884km 7555.885km
偏心率 0.000198 0.0002077
轨道倾角 87.925° 87.926°
近地点辐角 71.208° 65.964°
升交点赤经 244.024° 244.067°
平近点角 288.927° 343.034°
近地点 1176.25km 1176.178km
远地点 1179.244km 1179.318km
周期 108.940分钟 108.940分钟
每日圈数 13.218277 13.218276
Detailed Information
平衡模式:
三轴稳定
覆盖范围:
全球
运营商:
一网卫星公司
运营商所在国:
英国
制造商(研发单位):
一网卫星公司
制造商所在国:
英国
使用方式:
暂无
Satellite Introduction
OneWeb卫星网络由648颗重约125公斤的微型卫星组成,运行在1200公里的轨道上。 每颗卫星都能够提供至少每秒8千兆位的吞吐量,以使用其高吞吐量的Ku频段有效载荷为家庭和移动平台提供互联网接入。该卫星仍在工作。
2D Orbit Map
3D Orbit Map
Orbit Altitude Analysis Chart
Orbit Inclination Analysis Chart
Orbit Comprehensive Analysis Chart
View Comprehensive Chart